Zurück zum Katalog

YZ-1 R/B

AktivMEO
NORAD 43708·ROCKET BODY·🇨🇳 China

Gestartet Nov 18, 2018 von Xichang Satellite Launch Center

Loading…

Nächste Überflüge (nächste 24 Stunden)

TLE

AktuellSource: Space-Track

Epoche: Sep 13, 2026, 04:20 UTC

1 43708U 18093C   26256.18068943 -.00000004  00000-0  00000-0 0  9998
2 43708  54.1260 189.3026 0165803  53.1506 308.3427  1.77350437 50643

Verfolge YZ-1 R/B in Echtzeit mit AllMySat

Download on the App Store